SL-8 DEB, 3038

Orbit data source: Space-Track

SL-8 DEB, 3038 is space debris in LEO originally from a launch on Mon, 15 Mar 1965 UTC launched from the Tyuratam Missile And Space Complex (TTMTR). Debris objects in space refer to the collection of defunct objects orbiting the Earth. Examples of debris include non-operational satellites, rocket bodies, and fragments generated from explosions, collisions, or faulty payload assembly.

Loading next visibility...
Identifier
3038, 1965-020EN
Orbit
LEO
Country
Flag of CISCIS
Related business
Manufacturer
Unknown
Mission
Spacecraft
Bus & Motor
Unknown
Mass
Unknown
Launch date (UTC)
1965-03-15 (61 years ago)
Launch vehicle
Unknown
Launch site
Tyuratam Missile And Space Complex (TTMTR)
Object type
Payload
Rocket body
Debris
Shape & HBR
Unknown shape, 0.1 m
Radar Cross Section
Medium (>0.1 m² and <1 m²)

Expand to show TLE details & history
Last TLE update: 10 hours ago

TLE from 10 hours ago
0 SL-8 DEB
1 03038U 65020EN  25351.19128428  .00002839  00000-0  66268-3 0  9991
2 03038  56.1671 275.8585 0391367 181.7739 178.1886 14.19485951199945
Epoch: 2025-12-17T04:35Z
TLE epoch observation values (Epoch: 2025-12-17T04:35:26.961Z)
Latitude
-0.00005°
Longitude
120.93144°
Altitude
1,110.114 km
Speed
7.154 km/s
True Right ascension
18h 23m 26s
True Declination
0° 00' 00"
Sunlit
Object was in daylight at epoch
Visualization orbit readout
Latitude
Unknown
Longitude
Unknown
Altitude
Unknown
Speed
Unknown
Apparent Right ascension
Unknown
Apparent Declination
Unknown
Sunlit
N/A
Visualization observer readout
Local Sidereal Time
13:24:17
Azimuth
Unknown
Elevation
Unknown
Doppler factor
Unknown
Orbital elements
Apogee altitude
1,108.862 km
Perigee altitude
544.901 km
Semi-major axis
7,205.019 km
Eccentricity
0.03914
Inclination
56.1671°
RAAN
275.8585°
Arg. of periapsis
181.7739°
True anomaly
178.32374°
Mean anomaly
178.1886°
Eccentric anomaly
178.25681°
Mean motion
3.54887 °/min
Orbital period
101.44 mins
BSTAR
0.00066268
Loading maneuver chart data...
Computing Atmospheric mass density...
Loading historical data...
Loading historical data...
Loading historical data...
Loading historical data...
Loading historical data...
Loading historical data...
Loading historical data...

Documentation

Showing up to 5 results
|